Regional Weather Roundup
Issued by NWS

Home | Current Version | Previous Version | Graphics & Text | Print | Product List | Glossary On
Versions: 1 2 3 4 5 6 7 8 9 10 11 12 13 14 15 16 17 18 19 20 21 22 23 24 25 26 27 28 29 30 31 32 33 34 35 36 37 38 39 40 41 42 43 44 45 46 47 48 49 50
224
ASUS43 KIND 061809
RWRIN

WEATHER ROUNDUP FOR INDIANA
NATIONAL WEATHER SERVICE INDIANAPOLIS IN
200 PM EDT FRI MAY 06 2016

NOTE: "FAIR" INDICATES FEW OR NO CLOUDS BELOW 12,000 FEET WITH NO
SIGNIFICANT WEATHER AND/OR OBSTRUCTIONS TO VISIBILITY.

* - STATION DOES NOT REPORT WEATHER SUCH AS PRECIPITATION OR FOG.

+ - STATION NOT QUALITY CONTROLLED BY THE NATIONAL WEATHER SERVICE.
    USE DATA WITH CAUTION...ESPECIALLY DEWPOINT AND RELATIVE
    HUMIDITY OBSERVATIONS.

INZ001>003-010>013-019-020-061900-
NORTHWEST INDIANA

CITY           SKY/WX    TMP DP  RH WIND       PRES   REMARKS
GARY /AIRPORT/ MOSUNNY  N/A N/A N/A W8        29.94F
KNOX *+        SUNNY     70  27  19 SW6       29.95F
LA PORTE +     SUNNY     72  41  32 SW3       29.95F
6HR MIN TEMP:  47; 6HR MAX TEMP:  72;

MICHIGAN CITY+ SUNNY     70  37  30 CALM      29.95F
MONTICELLO +   SUNNY     69  35  28 NW6       29.97F
6HR MIN TEMP:  43; 6HR MAX TEMP:  69;

RENSSELAER +   SUNNY     72  32  23 SW6       29.96F
VALPARAISO     SUNNY     71  37  28 W6        29.95F
6HR MIN TEMP:  45; 6HR MAX TEMP:  72;


$$

LMZ046-743>745-061900-
SOUTHERN LAKE MICHIGAN

STATION/POSITION TIME  TEMP    WIND        PRES    WAVE
                       AIR SEA DIR/SP/G            HT
                 (UTC) (F)     (DEG/KT/KT) (MB)    (FT)
BURNS HARBOR     1700   63     330/  2/  4 1015.6F
MICHIGAN CITY    1700   60     230/  4/  4   N/A

$$

INZ004-005-014>016-021>024-061900-
NORTH CENTRAL INDIANA

CITY           SKY/WX    TMP DP  RH WIND       PRES   REMARKS
ELKHART        SUNNY     68  48  49 W6        29.96F
GOSHEN         SUNNY     67  45  45 W8        29.96F
6HR MIN TEMP:  43; 6HR MAX TEMP:  67;

LOGANSPORT +   SUNNY     68  41  37 NW3       29.98F
PERU/GRISSOM   SUNNY     67  42  39 VRB3      29.97F
6HR MIN TEMP:  45; 6HR MAX TEMP:  67;

ROCHESTER +    SUNNY     70  43  37 CALM      29.97F
SOUTH BEND     SUNNY     68  38  33 W3        29.95F
6HR MIN TEMP:  40; 6HR MAX TEMP:  69;

WARSAW +       SUNNY     68  39  34 W6        29.96F

$$

INZ006>009-017-018-025>027-061900-
NORTHEAST INDIANA

CITY           SKY/WX    TMP DP  RH WIND       PRES   REMARKS
ANGOLA *+        N/A     68  34  28 VRB3      29.95F
AUBURN +       SUNNY     68  34  28 NW5       29.96F
FORT WAYNE     MOSUNNY   67  41  38 W7        29.97F
6HR MIN TEMP:  47; 6HR MAX TEMP:  68;

HUNTINGTON +   SUNNY     66  40  37 NW5       29.97F

$$

INZ028-029-035-036-043>045-051>053-061900-
WEST CENTRAL INDIANA

CITY           SKY/WX    TMP DP  RH WIND       PRES   REMARKS
CRAWFORDSVL +  SUNNY     67  44  43 NW10      30.00F
6HR MIN TEMP:  41; 6HR MAX TEMP:  67;

GREENCASTLE +  SUNNY     66  46  48 NW6       30.01F
LAFAYETTE      SUNNY     70  40  33 VRB3      29.97F
6HR MIN TEMP:  41; 6HR MAX TEMP:  70;

TERRE HAUTE    SUNNY     70  41  34 CALM      30.00F
6HR MIN TEMP:  47; 6HR MAX TEMP:  70;


$$

INZ030>032-037>040-046>048-054>057-064-065-061900-
CENTRAL INDIANA

CITY           SKY/WX    TMP DP  RH WIND       PRES   REMARKS
ANDERSON       SUNNY     66 N/A N/A NW9       29.99F
CP ATTERBURY + SUNNY     68  41  37 NW10G16   30.00F
COLUMBUS       SUNNY     66  45  45 NW10      30.00F
FISHERS *+     SUNNY     66  46  48 NW7       29.98F
FRANKFORT +      N/A     68  22  17 N7        30.01F
6HR MIN TEMP:  44; 6HR MAX TEMP:  69;

GREENWOOD *+   SUNNY     68  43  40 NW8       30.00F
INDIANAPOLIS   MOSUNNY   68  41  37 NW10      29.98F
6HR MIN TEMP:  47; 6HR MAX TEMP:  68;

-EAGLE CREEK   SUNNY     67  40  37 NW7       29.99F
6HR MIN TEMP:  48; 6HR MAX TEMP:  67;

KOKOMO *+      SUNNY     66  45  45 NW9       29.98F
6HR MIN TEMP:  45; 6HR MAX TEMP:  66;

MARION +       SUNNY     65  38  37 NW3       29.98F
SHELBYVILLE    SUNNY     69  44  40 NW8       29.98F
6HR MIN TEMP:  48; 6HR MAX TEMP:  70;

ZIONSVILLE +   SUNNY     65  43  45 N12       30.00F
6HR MIN TEMP:  45; 6HR MAX TEMP:  65;


$$

INZ033-034-041-042-049-050-058-059-061900-
EAST CENTRAL INDIANA

CITY           SKY/WX    TMP DP  RH WIND       PRES   REMARKS
MUNCIE         SUNNY     67  43  41 NW9       29.97F
6HR MIN TEMP:  47; 6HR MAX TEMP:  68;


$$

INZ060-061-067>069-081>083-085>088-061900-
SOUTHWEST INDIANA

CITY           SKY/WX    TMP DP  RH WIND       PRES   REMARKS
EVANSVILLE     MOSUNNY   69  44  40 N9        30.03F
6HR MIN TEMP:  49; 6HR MAX TEMP:  69;

HUNTINGBURG *+ MOSUNNY   68  46  45 N9        30.03F
6HR MIN TEMP:  46; 6HR MAX TEMP:  68;

WASHINGTON +   SUNNY     69  43  40 N7        30.01F
6HR MIN TEMP:  49; 6HR MAX TEMP:  69;


$$

INZ062-063-066-070>080-084-089>092-061900-
SOUTH CENTRAL AND SOUTHEAST INDIANA

CITY           SKY/WX    TMP DP  RH WIND       PRES   REMARKS
BEDFORD +      SUNNY     66  50  55 N7        29.99F
BLOOMINGTON    SUNNY     68  40  35 N8        30.00F
6HR MIN TEMP:  46; 6HR MAX TEMP:  69;

MADISON *+     SUNNY     68  37  32 NW8       30.01F
NORTH VERNON + SUNNY     66  52  59 CALM      29.99F
SEYMOUR +      SUNNY     68  43  40 NW7       29.99F

$$





USA.gov is the U.S. government's official web portal to all federal, state and local government web resources and services.